| time (UTC) | temp F | wind direction | speed MPH | gust MPH | rain 1hr in | rain 24hr in | rain mn in | humidity % | barometer mb |
| 20260506214529 | 57 | 0 | 1.0 | 5.0 | 0.00 | 1.04 | 0.47 | 63 | 1014.0 |
| 20260506213028 | 57 | 360 | 0.0 | 5.0 | 0.00 | 1.04 | 0.47 | 59 | 1014.0 |
| 20260506211531 | 57 | 0 | 1.0 | 6.0 | 0.00 | 1.04 | 0.47 | 60 | 1013.7 |
| 20260506210032 | 58 | 0 | 0.0 | 4.0 | 0.00 | 1.04 | 0.47 | 61 | 1013.7 |
| 20260506204530 | 58 | 251 | 2.0 | 7.0 | 0.00 | 1.12 | 0.47 | 57 | 1013.5 |
| 20260506203030 | 58 | 352 | 1.0 | 5.0 | 0.00 | 1.12 | 0.47 | 55 | 1013.7 |
| 20260506201542 | 58 | 319 | 0.0 | 6.0 | 0.00 | 1.12 | 0.47 | 58 | 1013.6 |
| 20260506200031 | 57 | 292 | 1.0 | 5.0 | 0.00 | 1.12 | 0.47 | 57 | 1013.7 |
| 20260506194532 | 57 | 0 | 1.0 | 8.0 | 0.00 | 1.22 | 0.47 | 57 | 1013.9 |
| 20260506193037 | 57 | 44 | 3.0 | 9.0 | 0.00 | 1.22 | 0.47 | 57 | 1013.8 |
| 20260506191529 | 57 | 332 | 1.0 | 8.0 | 0.00 | 1.22 | 0.47 | 55 | 1013.6 |
| 20260506190032 | 58 | 312 | 3.0 | 13.0 | 0.00 | 1.22 | 0.47 | 56 | 1013.3 |
| 20260506184529 | 58 | 38 | 5.0 | 13.0 | 0.00 | 1.29 | 0.47 | 55 | 1013.2 |
| 20260506183030 | 58 | 19 | 1.0 | 13.0 | 0.00 | 1.29 | 0.47 | 59 | 1013.1 |
| 20260506181532 | 58 | 55 | 4.0 | 13.0 | 0.00 | 1.29 | 0.47 | 58 | 1013.2 |
| 20260506180030 | 59 | 336 | 2.0 | 7.0 | 0.00 | 1.29 | 0.47 | 59 | 1013.3 |
| 20260506174529 | 58 | 66 | 3.0 | 11.0 | 0.00 | 1.29 | 0.47 | 59 | 1013.4 |
| 20260506173030 | 58 | 246 | 2.0 | 10.0 | 0.00 | 1.29 | 0.47 | 62 | 1013.7 |
| 20260506171539 | 57 | 319 | 3.0 | 9.0 | 0.00 | 1.29 | 0.47 | 65 | 1013.7 |
| 20260506170031 | 56 | 30 | 3.0 | 8.0 | 0.00 | 1.29 | 0.47 | 62 | 1013.7 |
| 20260506164530 | 55 | 315 | 1.0 | 10.0 | 0.00 | 1.29 | 0.47 | 64 | 1013.9 |
| 20260506163039 | 54 | 9 | 3.0 | 9.0 | 0.00 | 1.29 | 0.47 | 65 | 1014.0 |
| 20260506161537 | 55 | 44 | 3.0 | 9.0 | 0.00 | 1.29 | 0.47 | 66 | 1013.7 |
| 20260506160034 | 54 | 5 | 1.0 | 10.0 | 0.00 | 1.29 | 0.47 | 68 | 1014.0 |
| 20260506154537 | 53 | 46 | 7.0 | 12.0 | 0.00 | 1.29 | 0.47 | 67 | 1013.8 |
| 20260506153038 | 53 | 28 | 3.0 | 11.0 | 0.00 | 1.29 | 0.47 | 71 | 1013.5 |
| 20260506151530 | 51 | 34 | 6.0 | 11.0 | 0.00 | 1.29 | 0.47 | 71 | 1013.5 |
| 20260506150032 | 51 | 13 | 2.0 | 10.0 | 0.00 | 1.29 | 0.47 | 73 | 1014.0 |
| 20260506144530 | 50 | 352 | 5.0 | 11.0 | 0.00 | 1.29 | 0.47 | 75 | 1013.0 |
| 20260506143032 | 48 | 21 | 5.0 | 12.0 | 0.00 | 1.29 | 0.47 | 76 | 1012.9 |
| 20260506141531 | 48 | 39 | 5.0 | 10.0 | 0.00 | 1.29 | 0.47 | 79 | 1012.6 |
| 20260506140037 | 48 | 17 | 3.0 | 9.0 | 0.00 | 1.29 | 0.47 | 83 | 1012.7 |
| 20260506134530 | 47 | 0 | 1.0 | 8.0 | 0.00 | 1.29 | 0.47 | 84 | 1012.6 |
| 20260506133031 | 47 | 5 | 3.0 | 11.0 | 0.00 | 1.29 | 0.47 | 83 | 1012.5 |
| 20260506131534 | 47 | 331 | 3.0 | 9.0 | 0.00 | 1.29 | 0.47 | 85 | 1012.4 |
| 20260506130030 | 46 | 352 | 2.0 | 9.0 | 0.00 | 1.29 | 0.47 | 87 | 1012.1 |
| 20260506124531 | 46 | 352 | 3.0 | 8.0 | 0.00 | 1.30 | 0.47 | 87 | 1012.0 |
| 20260506123030 | 45 | 339 | 1.0 | 5.0 | 0.00 | 1.30 | 0.47 | 88 | 1012.1 |
| 20260506121530 | 45 | 0 | 2.0 | 6.0 | 0.00 | 1.30 | 0.47 | 89 | 1012.0 |
| 20260506120033 | 45 | 352 | 0.0 | 4.0 | 0.00 | 1.30 | 0.47 | 90 | 1011.7 |
| 20260506114530 | 44 | 317 | 0.0 | 4.0 | 0.00 | 1.30 | 0.47 | 90 | 1011.3 |
| 20260506113032 | 44 | 9 | 1.0 | 4.0 | 0.00 | 1.30 | 0.47 | 91 | 1010.7 |
| 20260506111533 | 44 | 5 | 1.0 | 4.0 | 0.00 | 1.30 | 0.47 | 91 | 1010.7 |
| 20260506110030 | 43 | 5 | 2.0 | 5.0 | 0.00 | 1.30 | 0.47 | 91 | 1010.8 |
| 20260506104531 | 43 | 11 | 2.0 | 5.0 | 0.00 | 1.31 | 0.47 | 92 | 1010.1 |
| 20260506103032 | 43 | 11 | 1.0 | 4.0 | 0.00 | 1.31 | 0.47 | 92 | 1010.1 |
| 20260506101536 | 43 | 0 | 1.0 | 5.0 | 0.00 | 1.31 | 0.47 | 91 | 1010.1 |
| 20260506100036 | 43 | 5 | 0.0 | 4.0 | 0.00 | 1.31 | 0.47 | 91 | 1010.1 |
| 20260506094531 | 43 | 25 | 3.0 | 7.0 | 0.00 | 1.40 | 0.47 | 91 | 1009.3 |
| 20260506093052 | 43 | 32 | 1.0 | 6.0 | 0.00 | 1.40 | 0.47 | 91 | 1009.4 |
| 20260506091534 | 43 | 32 | 3.0 | 6.0 | 0.00 | 1.40 | 0.47 | 90 | 1009.7 |
| 20260506090034 | 43 | 19 | 2.0 | 9.0 | 0.00 | 1.40 | 0.47 | 90 | 1008.9 |
| 20260506084532 | 43 | 42 | 3.0 | 12.0 | 0.00 | 1.40 | 0.47 | 90 | 1008.8 |
| 20260506083031 | 43 | 22 | 7.0 | 17.0 | 0.01 | 1.40 | 0.47 | 90 | 1008.7 |
| 20260506081533 | 43 | 5 | 6.0 | 12.0 | 0.01 | 1.40 | 0.47 | 91 | 1008.8 |
| 20260506073033 | 44 | 41 | 6.0 | 19.0 | 0.11 | 1.39 | 0.46 | 92 | 1008.4 |
| 20260506071529 | 45 | 323 | 9.0 | 17.0 | 0.14 | 1.39 | 0.46 | 92 | 1008.5 |
| 20260506061530 | 47 | 5 | 6.0 | 13.0 | 0.09 | 1.24 | 0.31 | 93 | 1007.7 |
| 20260506044529 | 49 | 26 | 5.0 | 13.0 | 0.23 | 1.07 | 0.14 | 94 | 1007.4 |
| 20260506043029 | 50 | 14 | 5.0 | 14.0 | 0.16 | 0.98 | 0.05 | 94 | 1007.3 |
| 20260506041531 | 50 | 27 | 6.0 | 12.0 | 0.15 | 0.94 | 0.01 | 94 | 1007.1 |
| 20260506040031 | 51 | 28 | 6.0 | 14.0 | 0.16 | 0.93 | 0.00 | 94 | 1007.1 |
| 20260506034530 | 53 | 58 | 3.0 | 9.0 | 0.07 | 0.83 | 0.83 | 94 | 1007.0 |
| 20260506033034 | 58 | 0 | 0.0 | 2.0 | 0.06 | 0.82 | 0.82 | 95 | 1006.5 |
| 20260506031530 | 58 | 200 | 2.0 | 4.0 | 0.04 | 0.79 | 0.79 | 95 | 1006.7 |
| 20260506030030 | 58 | 0 | 0.0 | 4.0 | 0.05 | 0.77 | 0.77 | 95 | 1006.7 |
| 20260506024530 | 58 | 161 | 0.0 | 5.0 | 0.04 | 0.76 | 0.76 | 95 | 1006.9 |
| 20260506023036 | 58 | 0 | 0.0 | 5.0 | 0.07 | 0.76 | 0.76 | 95 | 1007.1 |
| 20260506021530 | 58 | 0 | 0.0 | 0.0 | 0.07 | 0.74 | 0.74 | 95 | 1007.4 |
| 20260506020105 | 58 | 0 | 0.0 | 0.0 | 0.07 | 0.72 | 0.72 | 95 | 1007.6 |
| 20260506014532 | 58 | 0 | 0.0 | 5.0 | 0.13 | 0.72 | 0.72 | 95 | 1007.4 |
| 20260506013031 | 59 | 0 | 0.0 | 3.0 | 0.17 | 0.69 | 0.69 | 94 | 1007.5 |
| 20260506011534 | 58 | 0 | 0.0 | 1.0 | 0.19 | 0.67 | 0.67 | 94 | 1007.3 |
| 20260506010034 | 58 | 0 | 0.0 | 1.0 | 0.18 | 0.65 | 0.65 | 94 | 1007.4 |
| 20260506004534 | 59 | 0 | 0.0 | 1.0 | 0.13 | 0.58 | 0.58 | 94 | 1007.4 |
| 20260506003030 | 59 | 0 | 0.0 | 3.0 | 0.07 | 0.52 | 0.52 | 94 | 1007.6 |
| 20260506001535 | 59 | 0 | 0.0 | 0.0 | 0.05 | 0.48 | 0.48 | 94 | 1007.2 |
| 20260506000050 | 59 | 0 | 0.0 | 3.0 | 0.05 | 0.47 | 0.47 | 94 | 1007.0 |
| 20260505234529 | 59 | 218 | 0.0 | 3.0 | 0.05 | 0.46 | 0.46 | 94 | 1007.0 |
| 20260505233033 | 59 | 209 | 2.0 | 6.0 | 0.05 | 0.45 | 0.45 | 93 | 1007.1 |
| 20260505231534 | 59 | 215 | 2.0 | 12.0 | 0.04 | 0.43 | 0.43 | 93 | 1007.2 |
| 20260505230041 | 60 | 182 | 5.0 | 12.0 | 0.03 | 0.42 | 0.42 | 94 | 1007.7 |
| 20260505224542 | 60 | 221 | 2.0 | 9.0 | 0.02 | 0.41 | 0.41 | 93 | 1007.7 |
| 20260505223036 | 60 | 213 | 2.0 | 6.0 | 0.02 | 0.40 | 0.40 | 94 | 1007.7 |
| 20260505221534 | 61 | 211 | 2.0 | 9.0 | 0.01 | 0.39 | 0.39 | 93 | 1007.7 |
| 20260505220033 | 61 | 227 | 2.0 | 8.0 | 0.03 | 0.39 | 0.39 | 94 | 1007.9 |